Regional Weather Roundup
Issued by NWS

Home | Current Version | Previous Version | Text Only | Print | Product List | Glossary On
Versions: 1 2 3 4 5 6 7 8 9 10 11 12 13 14 15 16 17 18 19 20 21 22 23 24 25 26 27 28 29 30 31 32 33 34 35 36 37 38 39 40 41 42 43 44 45 46 47 48 49 50
000
ASUS45 KABQ 251001
RWRNM
NEW MEXICO REGIONAL WEATHER ROUNDUP
NATIONAL WEATHER SERVICE ALBUQUERQUE NM
400 AM MDT TUE APR 25 2017

NOTE: "FAIR" MEANS FEW OR NO CLOUDS BELOW 12,000 FEET AGL WITH NO
       SIGNIFICANT WEATHER OR OBSTRUCTIONS TO VISION.

      THIS PRODUCT IS RELEASED AS TWO VERSIONS.  ONE VERSION NEAR
      THE TOP OF THE HOUR CONTAINING PRELIMINARY DATA FROM ALBUQUERQUE
      AND OTHER STATIONS.  A FINAL VERSION WITH ADDITIONAL DATA IS
      ISSUED ABOUT 10 MINUTES AFTER THE HOUR.

NMZ501-503-504-510>518-251100-
NORTHWEST PLATEAU/NORTHCENTRAL MOUNTAINS

CITY           SKY/WX    TMP DP  RH WIND       PRES   REMARKS
FARMINGTON     FAIR      53  24  32 NW5       29.62F
LOS ALAMOS     FAIR      52  18  26 CALM      29.72F
SANTA FE       CLOUDY    57  21  24 W17       29.68F
TAOS             N/A     48  19  32 W9        29.68F
ANGEL FIRE     FAIR      46  21  37 W31G44    29.68F

$$
NMZ402-403-502-505>509-251100-
WESTCENTRAL MOUNTAINS/SOUTHWEST MOUNTAINS

CITY           SKY/WX    TMP DP  RH WIND       PRES   REMARKS
GALLUP         CLOUDY    51  31  46 SW24G32   29.76R
GRANTS         CLOUDY    54  21  27 N6G18     29.76S
SILVER CITY    FAIR      58  14  17 W12       29.77F

$$
NMZ407-409-411-412-251100-
SOUTHERN DESERTS

CITY           SKY/WX    TMP DP  RH WIND       PRES   REMARKS
DEMING         FAIR      65  20  17 W16G24    29.73F
LAS CRUCES     FAIR      66  20  17 SW9       29.75S
HOLLOMAN AFB   FAIR      73  16  11 SW22G32   29.71S
ALAMOGORDO     FAIR      72  16  12 SW13G18   29.72R
T OR C         FAIR      65  19  17 S9        29.67F

$$
NMZ519>523-251100-
CENTRAL VALLEYS/CENTRAL HIGHLANDS

CITY           SKY/WX    TMP DP  RH WIND       PRES   REMARKS
ALBUQUERQUE    CLOUDY    62  21  20 S13       29.69F
MORIARTY ARPT  CLOUDY    59  23  24 SW14      29.72F
CLINES CORNERS FAIR      53  20  27 W32       29.71R
BELEN          CLOUDY    60  22  23 W10       29.69F
SOCORRO        FAIR      64  19  18 NW5       29.68S

$$
NMZ524>526-539-540-251100-
SOUTHCENTRAL MOUNTAINS

CITY           SKY/WX    TMP DP  RH WIND       PRES   REMARKS
RUIDOSO        NOT AVBL

$$
NMZ527>531-251100-
NORTHEAST HIGHLANDS/NORTHEAST PLAINS

CITY           SKY/WX    TMP DP  RH WIND       PRES   REMARKS
LAS VEGAS      FAIR      51  21  30 W13       29.62F
RATON          FAIR      56  23  27 W24G30    29.55F
CLAYTON        FAIR      58  25  28 W17       29.49F

$$
NMZ532>537-251100-
EASTCENTRAL PLAINS

CITY           SKY/WX    TMP DP  RH WIND       PRES   REMARKS
SANTA ROSA     FAIR      59  23  24 W12       29.58S
TUCUMCARI      FAIR      66  23  19 W14       29.49F
CANNON AFB     FAIR      61  20  20 W12       29.56F
CLOVIS AIRPORT FAIR      64  19  17 W16G22    29.55F

$$
NMZ028-029-538-251100-
SOUTHEAST PLAINS

CITY           SKY/WX    TMP DP  RH WIND       PRES   REMARKS
ROSWELL        FAIR      71  20  14 S8          N/A
ARTESIA        FAIR      70  21  16 SW16      29.58F
CARLSBAD       FAIR      76  18  11 W20G29    29.56F
HOBBS          FAIR      68  19  15 SW15      29.59S


$$




USA.gov is the U.S. government's official web portal to all federal, state and local government web resources and services.